Location: Newark
(46.7000°N, 60.6000°W)
Time: 06:08:29
(UTC+00:00)

Transit 2A Rocket - Pass Details

Date: 05 November 2020
Orbit: 588 x 914 km, 66.7° (Epoch: 27 November)

Event Time Altitude Azimuth Distance (km) Brightness Sun altitude
Rises 10:08:12 0° 160° (SSE) 3,535 9.0 -7.8°
Reaches altitude 10° 10:11:41 10° 141° (SE) 2,593 8.7 -7.2°
Maximum altitude 10:15:16 16° 104° (ESE) 2,155 8.8 -6.6°
Drops below altitude 10° 10:18:46 10° 68° (ENE) 2,549 8.6 -6.0°
Sets 10:22:09 0° 48° (NE) 3,446 8.8 -5.5°
